Regional Weather Roundup
Issued by NWS Charleston, SC

Home | Current Version | Previous Version | Text Only | Print | Product List | Glossary On
Versions: 1 2 3 4 5 6 7 8 9 10 11 12 13 14 15 16 17 18 19 20 21 22 23 24 25 26 27 28 29 30 31 32 33 34 35 36 37 38 39 40 41 42 43 44 45 46 47 48 49 50
000
ASUS42 KCHS 280626
RWRCHS

REGIONAL WEATHER ROUNDUP
NATIONAL WEATHER SERVICE CHARLESTON SC
200 AM EDT TUE JUL 28 2015

NOTE: "FAIR" INDICATES FEW OR NO CLOUDS BELOW 12,000 FEET WITH NO
SIGNIFICANT WEATHER AND/OR OBSTRUCTIONS TO VISIBILITY.

NOT ALL STATIONS ARE QUALITY CONTROLLED BY THE NATIONAL
WEATHER SERVICE. USE DATA WITH CAUTION...ESPECIALLY
DEWPOINT OBSERVATIONS.

SCZ027-030-031-034>040-042>050-280700-
...SOUTHEAST SOUTH CAROLINA...

CITY           SKY/WX    TMP DP  RH WIND       PRES   REMARKS
N CHARLESTON   CLEAR     78  75  90 N5        29.97R
6HR MIN TEMP:  77; 6HR MAX TEMP:  84;

WATERFRONT PRK   N/A     81  78  91 VRB3      29.93S
MOUNT PLEASANT FAIR      75  75 100 CALM      29.96F
JOHNS ISLAND   FAIR      77  75  94 CALM      29.96S
PINOPOLIS      NOT AVBL
MONCKS CORNER  FAIR      77  73  88 CALM      29.97F
SUMMERVILLE    FAIR      77  77 100 CALM      29.98S
BEAUFORT MCAS  CLEAR     77  76  96 N6        29.96S
6HR MIN TEMP:  77; 6HR MAX TEMP:  85;

BEAUFORT ARPT  FAIR      79  79 100 N5        29.96S
HILTON HEAD IS PTCLDY    79  79 100 MISG      29.96F
WALTERBORO     CLEAR     77  73  88 CALM      29.98S
ALLENDALE      FAIR      75  75 100 CALM      29.97S

...SOUTHERN MIDLANDS AND PEE DEE...

CITY           SKY/WX    TMP DP  RH WIND       PRES   REMARKS
GEORGETOWN     NOT AVBL
KINGSTREE      NOT AVBL
ORANGEBURG     PTCLDY    79  74  84 CALM      29.99S
6HR MIN TEMP:  78; 6HR MAX TEMP:  88;

BARNWELL       FAIR      77  75  94 CALM      30.00S
AIKEN          FAIR      77  68  73 E3        30.03F
MANNING        FAIR      75  73  94 CALM      29.98F
COLUMBIA       MOCLDY    81  73  76 E7        29.99F
6HR MIN TEMP:  81; 6HR MAX TEMP:  93; 6HR PCP: TRACE;

SUMTER         CLOUDY    80  74  82 CALM      29.98S
6HR MIN TEMP:  80; 6HR MAX TEMP:  89;

FLORENCE       MOCLDY    78  74  87 NE3       30.00S
6HR MIN TEMP:  77; 6HR MAX TEMP:  87;

MYRTLE BEACH   MOCLDY    81  73  78 E5        29.99F
N MYRTLE BEACH PTCLDY    76  73  91 NE6       29.98S
6HR MIN TEMP:  76; 6HR MAX TEMP:  83;


$$

GAZ063-065-086>088-099>101-113>116-118-119-134>141-150-280700-
...SOUTHEAST GEORGIA...

CITY           SKY/WX    TMP DP  RH WIND       PRES   REMARKS
SAVANNAH ARPT  PTCLDY    77  75  93 N3        29.96S
6HR MIN TEMP:  77; 6HR MAX TEMP:  84;

HUNTER AAF     CLEAR     77  77 100 CALM      29.94S
6HR MIN TEMP:  77; 6HR MAX TEMP:  83;

FORT STEWART   PTCLDY    76  74  93 N1        29.94S
6HR MIN TEMP:  76; 6HR MAX TEMP:  85;

STATESBORO     CLEAR     75  32  20 CALM      29.97S
SYLVANIA       CLEAR     76  76  97 CALM      29.99S
CLAXTON        FAIR      73  73 100 CALM      29.97R FOG

...CSRA...CENTRAL AND FAR SOUTHEAST GEORGIA...

CITY           SKY/WX    TMP DP  RH WIND       PRES   REMARKS
THOMSON        PTCLDY    77  73  87 CALM      30.03F
AUGUSTA-BUSH   CLEAR     75  72  90 CALM      29.98S
6HR MIN TEMP:  74; 6HR MAX TEMP:  91;

AUGUSTA-DANIEL CLEAR     80  72  76 SE6       30.00S
SWAINSBORO     FAIR     N/A N/A N/A CALM      29.99R
VIDALIA        PTCLDY    77  73  88 CALM      29.97S FOG
EASTMAN        FAIR      74  74 100 CALM      30.00S
HAZLEHURST     FAIR      78  78 100 CALM      29.96S
ALMA           PTCLDY    76  75  97 CALM      29.96S FOG
6HR MIN TEMP:  76; 6HR MAX TEMP:  86;

WAYCROSS       PTCLDY    78  78 100 CALM      29.95F FOG
JESUP          FAIR      77  77 100 CALM      29.96S
BAXLEY         FAIR      77  75  94 CALM      29.96S
BRUNSWICK        N/A     73  73 100 CALM      29.96S VSB 1/2
SAINT SIMONS   MOCLDY    80  77  90 CALM      29.95S

$$

SCZ027-028-034-036>038-045-046-048>050-GAZ119-141-280700-
...LAKE AND SUPPLEMENTAL COASTAL OBSERVATIONS...

STATION/POSITION TIME  TEMP    WIND        PRES    WAVE   SWELL
                       AIR SEA DIR/SP/G            HT/PER HT/PER/DIR
                 (UTC) (F)     (DEG/KT/KT) (MB)    (FT/S) (FT/S/D)
UPR LAKE MARION  NOT AVBL
WINYAH BAY       0500   81      80/  5     1014.0
LAKE MURRAY      0500   83      CALM  /  6 1015.6R
ACE BASIN NERRS  NOT AVBL
FORT PULASKI     0600   81 85  110/  2/  2 1014.7F
SAPELO ISLAND    0600   77        CALM     1014.0S

$$

ANZ835-935-AMZ111-154-330-350-352-354-370-450-454-472-280700-
...C-MAN AND BUOY OBSERVATIONS...

STATION/POSITION TIME  TEMP    WIND        PRES    WAVE   SWELL
                       AIR SEA DIR/SP/G            HT/PER HT/PER/DIR
                 (UTC) (F)     (DEG/KT/KT) (MB)    (FT/S) (FT/S/D)
BUOY 41004       0550   83 84   70/  4/  6 1013.7S   3/ 6   3/ 6
BUOY 41008       0550   81 82     CALM     1014.4F   2/ 7   2/110/ 7
FOLLY BEACH CMAN 0600   81      60/  6/  7 1014.6S
CAPERS NEARSHORE 0508   82      70/  8/ 10 1014.5S
FRIPP NEARSHORE  0500   83      70/  4/  4 1014.0F


STATION/POSITION TIME  TEMP    WIND        PRES    WAVE   SWELL
                       AIR SEA DIR/SP/G            HT/PER HT/PER/DIR
                 (UTC) (F)     (DEG/KT/KT) (MB)    (FT/S) (FT/S/D)
5E ST. MARYS GA  0521      81                N/A     2/ 6
FRYING PAN BUOY  0550   83 83   90/ 10/ 12 1015.0S   3/ 7   3/160/ 7
BUOY 41025       NOT AVBL
CAPE LOOKOUT NC  0600   80     100/  8/ 10 1015.6R
BUOY 41002       0550   82 82  240/ 12/ 14 1015.4R   5/ 6   5/230/ 6
BUOY 41010       0520   84 84  200/ 16/ 17 1015.3F
ST AUGUSTINE FL  0600   78 80  190/  4/  4 1014.7F


$$



USA.gov is the U.S. government's official web portal to all federal, state and local government web resources and services.